,,PA_Meas_PMT16A,,PR_Meas_QMR101_102,,RH_Meas_QMH101,,SR_Meas_QMS101,,TA_Meas_QMH101,,GenWind,,GenWind,
time,status,PA,status,PR,status,RH,status,SR,status,TA,status,DirAvg,status,SpdAvg,
2014-11-17, 07:00:04,VALID,916.245,VALID,0,VALID,97.9609,VALID,58.2331,VALID,19.5078,VALID,84,VALID,0.678125,
2014-11-17, 07:01:04,VALID,916.308,VALID,0,VALID,97.9456,VALID,66.2912,VALID,19.5063,VALID,113,VALID,0.48125,
2014-11-17, 07:02:04,VALID,916.306,VALID,0,VALID,97.938,VALID,67.1507,VALID,19.5858,VALID,114,VALID,0.433203,
2014-11-17, 07:03:04,VALID,916.332,VALID,0,VALID,97.9456,VALID,60.167,VALID,19.5468,VALID,152,VALID,0.849609,
2014-11-17, 07:04:04,VALID,916.316,VALID,0,VALID,97.9228,VALID,59.415,VALID,19.5468,VALID,152,VALID,0.505859,
2014-11-17, 07:05:04,VALID,916.317,VALID,0,VALID,97.9304,VALID,57.9108,VALID,19.5468,VALID,152,VALID,0.588281,
2014-11-17, 07:06:04,VALID,916.348,VALID,0,VALID,97.9609,VALID,67.2582,VALID,19.5078,VALID,154,VALID,0.947656,
2014-11-17, 07:07:04,VALID,916.393,VALID,0,VALID,97.9685,VALID,93.4738,VALID,19.4688,VALID,162,VALID,0.865625,
2014-11-17, 07:08:04,VALID,916.404,VALID,0,VALID,97.938,VALID,89.0687,VALID,19.4688,VALID,162,VALID,0.562109,
2014-11-17, 07:09:04,VALID,916.402,VALID,0,VALID,97.9228,VALID,67.9028,VALID,19.5273,VALID,162,VALID,0.278125,
2014-11-17, 07:10:04,VALID,916.418,VALID,0,VALID,97.9075,VALID,66.6135,VALID,19.5063,VALID,162,VALID,0.524609,
2014-11-17, 07:11:04,VALID,916.434,VALID,0,VALID,97.9152,VALID,78.3246,VALID,19.4868,VALID,162,VALID,0.571875,
2014-11-17, 07:12:04,VALID,916.485,VALID,0,VALID,97.9075,VALID,102.284,VALID,19.5063,VALID,162,VALID,0.453125,
2014-11-17, 07:13:04,VALID,916.494,VALID,0,VALID,97.8694,VALID,112.061,VALID,19.5663,VALID,162,VALID,0.383984,
2014-11-17, 07:14:04,VALID,916.547,VALID,0,VALID,97.877,VALID,102.929,VALID,19.6038,VALID,160,VALID,0.716406,
2014-11-17, 07:15:04,VALID,916.591,VALID,0,VALID,97.8465,VALID,119.797,VALID,19.6638,VALID,160,VALID,0.462891,
2014-11-17, 07:16:04,VALID,916.63,VALID,0,VALID,97.8465,VALID,140.64,VALID,19.7013,VALID,150,VALID,0.412109,
2014-11-17, 07:17:04,VALID,916.666,VALID,0,VALID,97.8237,VALID,144.723,VALID,19.7598,VALID,150,VALID,0.350781,
2014-11-17, 07:18:04,VALID,916.737,VALID,0,VALID,97.7856,VALID,143.112,VALID,19.8573,VALID,144,VALID,0.385547,
2014-11-17, 07:19:04,VALID,916.767,VALID,0,VALID,97.7856,VALID,155.038,VALID,19.9548,VALID,112,VALID,0.8,
2014-11-17, 07:20:04,VALID,916.802,VALID,0,VALID,97.7551,VALID,161.377,VALID,20.0133,VALID,98,VALID,0.880859,
2014-11-17, 07:21:04,VALID,916.806,VALID,0,VALID,97.7474,VALID,163.74,VALID,20.0718,VALID,89,VALID,1.03203,
2014-11-17, 07:22:04,VALID,916.843,VALID,0,VALID,97.7246,VALID,165.244,VALID,20.1303,VALID,59,VALID,1.23086,
2014-11-17, 07:23:04,VALID,916.862,VALID,0,VALID,97.6865,VALID,158.905,VALID,20.1108,VALID,56,VALID,1.00352,
2014-11-17, 07:24:04,VALID,916.87,VALID,0,VALID,97.6407,VALID,156.434,VALID,20.1888,VALID,56,VALID,0.455078,
2014-11-17, 07:25:04,VALID,916.916,VALID,0,VALID,97.5873,VALID,161.377,VALID,20.2278,VALID,56,VALID,0.272656,
2014-11-17, 07:26:04,VALID,916.929,VALID,0,VALID,97.534,VALID,180.179,VALID,20.3058,VALID,56,VALID,0.48125,
2014-11-17, 07:27:04,VALID,916.924,VALID,0,VALID,97.4349,VALID,184.476,VALID,20.3643,VALID,56,VALID,0.657812,
2014-11-17, 07:28:04,VALID,916.938,VALID,0,VALID,97.3663,VALID,188.882,VALID,20.4634,VALID,58,VALID,0.907031,
2014-11-17, 07:29:04,VALID,916.949,VALID,0,VALID,97.2443,VALID,192.642,VALID,20.4244,VALID,99,VALID,0.792188,
2014-11-17, 07:30:04,VALID,916.948,VALID,0,VALID,97.1299,VALID,191.568,VALID,20.5219,VALID,80,VALID,1.2125,
2014-11-17, 07:31:04,VALID,916.954,VALID,0,VALID,96.8707,VALID,193.609,VALID,20.5219,VALID,105,VALID,1.12539,
2014-11-17, 07:32:04,VALID,916.997,VALID,0,VALID,96.4896,VALID,196.832,VALID,20.5804,VALID,105,VALID,0.747266,
2014-11-17, 07:33:04,VALID,917.018,VALID,0,VALID,96.0627,VALID,200.163,VALID,20.6975,VALID,105,VALID,0.291797,
2014-11-17, 07:34:04,VALID,917.044,VALID,0,VALID,95.529,VALID,204.353,VALID,20.795,VALID,105,VALID,0.908594,
2014-11-17, 07:35:04,VALID,917.028,VALID,0,VALID,94.0501,VALID,207.576,VALID,20.8129,VALID,105,VALID,1.1168,
2014-11-17, 07:36:04,VALID,917.054,VALID,0,VALID,92.9676,VALID,209.403,VALID,20.9495,VALID,90,VALID,0.924219,
2014-11-17, 07:37:04,VALID,917.119,VALID,0,VALID,91.5725,VALID,213.056,VALID,20.9885,VALID,87,VALID,1.00664,
2014-11-17, 07:38:04,VALID,917.12,VALID,0,VALID,91.7173,VALID,218.535,VALID,21.1055,VALID,85,VALID,0.736719,
2014-11-17, 07:39:04,VALID,917.12,VALID,0,VALID,90.6348,VALID,225.519,VALID,21.1445,VALID,94,VALID,1.25117,
2014-11-17, 07:40:04,VALID,917.135,VALID,0,VALID,90.2155,VALID,231.106,VALID,21.1445,VALID,96,VALID,1.16914,
2014-11-17, 07:41:04,VALID,917.137,VALID,0,VALID,91.237,VALID,234.651,VALID,21.2421,VALID,89,VALID,0.876172,
2014-11-17, 07:42:04,VALID,917.169,VALID,0,VALID,91.7173,VALID,237.875,VALID,21.3981,VALID,76,VALID,0.704687,
2014-11-17, 07:43:04,VALID,917.19,VALID,0,VALID,90.6119,VALID,241.42,VALID,21.5347,VALID,105,VALID,1.04961,
2014-11-17, 07:44:04,VALID,917.196,VALID,0,VALID,89.5065,VALID,246.148,VALID,21.5542,VALID,92,VALID,0.739062,
2014-11-17, 07:45:04,VALID,917.192,VALID,0,VALID,90.2612,VALID,249.263,VALID,21.7103,VALID,102,VALID,0.299219,
2014-11-17, 07:46:04,VALID,917.253,VALID,0,VALID,89.5065,VALID,253.239,VALID,21.8859,VALID,116,VALID,0.034375,
2014-11-17, 07:47:04,VALID,917.263,VALID,0,VALID,87.898,VALID,256.569,VALID,22.0225,VALID,172,VALID,1.09805,
2014-11-17, 07:48:04,VALID,917.288,VALID,0,VALID,85.8168,VALID,259.255,VALID,22.1201,VALID,171,VALID,0.712109,
2014-11-17, 07:49:04,VALID,917.321,VALID,0,VALID,85.6948,VALID,261.727,VALID,22.1786,VALID,169,VALID,0.373047,
2014-11-17, 07:50:04,VALID,917.34,VALID,0,VALID,84.3912,VALID,265.272,VALID,22.2567,VALID,169,VALID,0.570703,
2014-11-17, 07:51:04,VALID,917.37,VALID,0,VALID,85.611,VALID,269.14,VALID,22.3525,VALID,169,VALID,0.106641,
2014-11-17, 07:52:04,VALID,917.378,VALID,0,VALID,85.9311,VALID,272.041,VALID,22.5867,VALID,161,VALID,0.362109,
2014-11-17, 07:53:04,VALID,917.396,VALID,0,VALID,84.0787,VALID,275.157,VALID,22.7428,VALID,192,VALID,0.808594,
2014-11-17, 07:54:04,VALID,917.384,VALID,0,VALID,83.1257,VALID,279.992,VALID,22.8014,VALID,186,VALID,0.591797,
2014-11-17, 07:55:04,VALID,917.38,VALID,0,VALID,83.1181,VALID,285.686,VALID,22.8404,VALID,179,VALID,0.578516,
2014-11-17, 07:56:04,VALID,917.449,VALID,0,VALID,83.0266,VALID,291.273,VALID,22.9397,VALID,171,VALID,0.569141,
2014-11-17, 07:57:04,VALID,917.428,VALID,0,VALID,83.4459,VALID,295.678,VALID,22.9983,VALID,150,VALID,0.0367187,
2014-11-17, 07:58:04,VALID,917.43,VALID,0,VALID,82.1347,VALID,299.546,VALID,23.0763,VALID,151,VALID,0.667969,
2014-11-17, 07:59:04,VALID,917.47,VALID,0,VALID,81.7993,VALID,304.918,VALID,22.9575,VALID,151,VALID,1.125,
2014-11-17, 08:00:04,VALID,917.424,VALID,0,VALID,82.3634,VALID,308.678,VALID,22.9592,VALID,133,VALID,1.13047,
2014-11-17, 08:01:04,VALID,917.438,VALID,0,VALID,83.0571,VALID,310.183,VALID,22.8421,VALID,131,VALID,0.724609,
2014-11-17, 08:02:04,VALID,917.453,VALID,0,VALID,82.0356,VALID,312.654,VALID,22.8599,VALID,77,VALID,0.869531,
2014-11-17, 08:03:04,VALID,917.434,VALID,0,VALID,82.8055,VALID,315.77,VALID,22.8031,VALID,76,VALID,1.04141,
2014-11-17, 08:04:04,VALID,917.443,VALID,0,VALID,83.6746,VALID,318.993,VALID,22.686,VALID,98,VALID,0.712109,
2014-11-17, 08:05:04,VALID,917.465,VALID,0,VALID,85.2527,VALID,322.968,VALID,22.7038,VALID,92,VALID,0.606641,
2014-11-17, 08:06:04,VALID,917.482,VALID,0,VALID,83.1638,VALID,327.158,VALID,22.8014,VALID,60,VALID,1.36133,
2014-11-17, 08:07:04,VALID,917.53,VALID,0,VALID,83.1715,VALID,330.596,VALID,22.8209,VALID,65,VALID,1.08828,
2014-11-17, 08:08:04,VALID,917.55,VALID,0,VALID,82.9428,VALID,333.497,VALID,22.8209,VALID,61,VALID,1.03164,
2014-11-17, 08:09:04,VALID,917.557,VALID,0,VALID,83.6136,VALID,336.291,VALID,22.7818,VALID,56,VALID,1.25937,
2014-11-17, 08:10:04,VALID,917.613,VALID,0,VALID,81.3266,VALID,338.01,VALID,22.7233,VALID,58,VALID,0.925391,
2014-11-17, 08:11:04,VALID,917.639,VALID,0,VALID,82.0356,VALID,338.01,VALID,22.6843,VALID,82,VALID,0.816797,
2014-11-17, 08:12:04,VALID,917.654,VALID,0,VALID,82.7369,VALID,344.886,VALID,22.8404,VALID,97,VALID,0.436719,
2014-11-17, 08:13:04,VALID,917.645,VALID,0,VALID,80.4804,VALID,350.366,VALID,22.977,VALID,97,VALID,0.349609,
2014-11-17, 08:14:04,VALID,917.697,VALID,0,VALID,81.8069,VALID,354.771,VALID,23.1527,VALID,83,VALID,0.46875,
2014-11-17, 08:15:04,VALID,917.683,VALID,0,VALID,80.4194,VALID,359.928,VALID,23.268,VALID,77,VALID,0.900391,
2014-11-17, 08:16:04,VALID,917.702,VALID,0,VALID,79.0167,VALID,364.87,VALID,23.307,VALID,56,VALID,1.09766,
2014-11-17, 08:17:04,VALID,917.717,VALID,0,VALID,79.5199,VALID,370.779,VALID,23.268,VALID,55,VALID,0.476953,
2014-11-17, 08:18:04,VALID,917.725,VALID,0,VALID,79.8782,VALID,373.036,VALID,23.307,VALID,61,VALID,1.14023,
2014-11-17, 08:19:04,VALID,917.717,VALID,0,VALID,77.7665,VALID,375.077,VALID,23.268,VALID,60,VALID,0.941016,
2014-11-17, 08:20:04,VALID,917.728,VALID,0,VALID,78.8871,VALID,377.871,VALID,23.307,VALID,60,VALID,0.330859,
2014-11-17, 08:21:04,VALID,917.716,VALID,0,VALID,76.1579,VALID,381.953,VALID,23.4241,VALID,63,VALID,0.954687,
2014-11-17, 08:23:04,VALID,917.704,VALID,0,VALID,76.2799,VALID,390.656,VALID,23.4863,VALID,63,VALID,0.527344,
2014-11-17, 08:24:04,VALID,917.713,VALID,0,VALID,77.5606,VALID,400.111,VALID,23.5821,VALID,52,VALID,0.751953,
2014-11-17, 08:25:04,VALID,917.693,VALID,0,VALID,75.1821,VALID,411.392,VALID,23.8944,VALID,55,VALID,0.916406,
2014-11-17, 08:26:04,VALID,917.723,VALID,0,VALID,75.0754,VALID,419.558,VALID,24.0506,VALID,52,VALID,0.757031,
2014-11-17, 08:27:04,VALID,917.726,VALID,0,VALID,79.1006,VALID,303.844,VALID,24.0683,VALID,11,VALID,1.61445,
2014-11-17, 08:28:04,VALID,917.754,VALID,0,VALID,80.5414,VALID,187.162,VALID,23.9902,VALID,16,VALID,1.39805,
2014-11-17, 08:29:04,VALID,917.736,VALID,0,VALID,79.4817,VALID,210.047,VALID,23.8145,VALID,351,VALID,1.37266,
2014-11-17, 08:30:04,VALID,917.752,VALID,0,VALID,80.2822,VALID,371.102,VALID,23.6193,VALID,345,VALID,0.554688,
2014-11-17, 08:31:04,VALID,917.754,VALID,0,VALID,81.6468,VALID,366.267,VALID,23.5608,VALID,337,VALID,0.0480469,
2014-11-17, 08:32:04,VALID,917.746,VALID,0,VALID,81.5705,VALID,325.654,VALID,23.6193,VALID,343,VALID,0,
2014-11-17, 08:33:04,VALID,917.734,VALID,0,VALID,81.6315,VALID,398.607,VALID,23.6584,VALID,300,VALID,0,
2014-11-17, 08:34:04,VALID,917.766,VALID,0,VALID,81.3647,VALID,389.689,VALID,23.6211,VALID,273,VALID,0.816016,
2014-11-17, 08:35:04,VALID,917.718,VALID,0,VALID,81.319,VALID,397.64,VALID,23.4241,VALID,272,VALID,0.785156,
2014-11-17, 08:36:04,VALID,917.73,VALID,0,VALID,81.7535,VALID,452.864,VALID,23.3851,VALID,273,VALID,0.254297,
2014-11-17, 08:37:04,VALID,917.709,VALID,0,VALID,83.7204,VALID,483.27,VALID,23.4241,VALID,292,VALID,0,
2014-11-17, 08:38:04,VALID,917.741,VALID,0,VALID,82.836,VALID,497.453,VALID,23.6779,VALID,283,VALID,0,
2014-11-17, 08:39:04,VALID,917.741,VALID,0,VALID,78.5593,VALID,506.263,VALID,23.7578,VALID,325,VALID,0.633594,
2014-11-17, 08:40:04,VALID,917.776,VALID,0,VALID,77.9799,VALID,159.335,VALID,23.6602,VALID,271,VALID,1.19336,
2014-11-17, 08:41:04,VALID,917.736,VALID,0,VALID,78.9862,VALID,134.731,VALID,23.4454,VALID,270,VALID,0.836328,
2014-11-17, 08:42:04,VALID,917.738,VALID,0,VALID,78.3382,VALID,124.847,VALID,23.3283,VALID,270,VALID,0.458594,
2014-11-17, 08:43:04,VALID,917.734,VALID,0,VALID,78.2849,VALID,170.079,VALID,23.1899,VALID,270,VALID,0.653125,
2014-11-17, 08:44:04,VALID,917.735,VALID,0,VALID,79.2073,VALID,374.003,VALID,23.0924,VALID,270,VALID,0.695703,
2014-11-17, 08:45:04,VALID,917.724,VALID,0,VALID,80.9531,VALID,481.014,VALID,23.1136,VALID,270,VALID,0.300781,
2014-11-17, 08:46:04,VALID,917.736,VALID,0,VALID,79.6037,VALID,383.35,VALID,23.2698,VALID,301,VALID,0.611328,
2014-11-17, 08:47:04,VALID,917.713,VALID,0,VALID,75.67,VALID,512.065,VALID,23.4241,VALID,286,VALID,0.617188,
2014-11-17, 08:48:04,VALID,917.715,VALID,0,VALID,75.3803,VALID,506.048,VALID,23.4845,VALID,272,VALID,0.380078,
2014-11-17, 08:49:04,VALID,917.708,VALID,0,VALID,75.0525,VALID,504.759,VALID,23.5412,VALID,271,VALID,0.751172,
2014-11-17, 08:50:04,VALID,917.711,VALID,0,VALID,74.9839,VALID,497.99,VALID,23.7364,VALID,289,VALID,0,
2014-11-17, 08:51:04,VALID,917.659,VALID,0,VALID,73.2915,VALID,508.949,VALID,23.8926,VALID,315,VALID,0,
2014-11-17, 08:52:04,VALID,917.715,VALID,0,VALID,75.3803,VALID,514.536,VALID,23.9493,VALID,327,VALID,0,
2014-11-17, 08:53:04,VALID,917.685,VALID,0,VALID,74.435,VALID,520.767,VALID,23.9512,VALID,305,VALID,0,
2014-11-17, 08:54:04,VALID,917.704,VALID,0,VALID,74.1758,VALID,528.073,VALID,24.0488,VALID,276,VALID,0,
2014-11-17, 08:55:04,VALID,917.712,VALID,0,VALID,73.6498,VALID,535.702,VALID,24.1854,VALID,277,VALID,0,
2014-11-17, 08:56:04,VALID,917.705,VALID,0,VALID,73.3678,VALID,529.04,VALID,24.1464,VALID,260,VALID,0,
2014-11-17, 08:57:04,VALID,917.719,VALID,0,VALID,73.3449,VALID,529.04,VALID,24.0488,VALID,265,VALID,0,
2014-11-17, 08:58:04,VALID,917.708,VALID,0,VALID,72.4758,VALID,534.305,VALID,24.0097,VALID,286,VALID,1.3418,
2014-11-17, 08:59:04,VALID,917.706,VALID,0,VALID,74.3512,VALID,456.732,VALID,23.7932,VALID,291,VALID,0.0542969,
2014-11-17, 09:00:04,VALID,917.684,VALID,0,VALID,76.3942,VALID,569.008,VALID,23.6956,VALID,288,VALID,0.00195313,
2014-11-17, 09:01:04,VALID,917.687,VALID,0,VALID,74.2978,VALID,562.454,VALID,23.7169,VALID,288,VALID,0.361719,
2014-11-17, 09:02:04,VALID,917.692,VALID,0,VALID,74.5723,VALID,566.215,VALID,23.6956,VALID,292,VALID,0,
2014-11-17, 09:03:04,VALID,917.645,VALID,0,VALID,74.1225,VALID,575.455,VALID,23.834,VALID,297,VALID,0.00078125,
2014-11-17, 09:04:04,VALID,917.674,VALID,0,VALID,73.6956,VALID,589.637,VALID,24.0469,VALID,283,VALID,0,
2014-11-17, 09:05:04,VALID,917.663,VALID,0,VALID,72.6969,VALID,359.498,VALID,24.2421,VALID,282,VALID,0,
2014-11-17, 09:06:04,VALID,917.645,VALID,0,VALID,72.4148,VALID,393.235,VALID,24.2812,VALID,301,VALID,0.00429688,
2014-11-17, 09:07:04,VALID,917.666,VALID,0,VALID,73.1772,VALID,221.759,VALID,24.3788,VALID,290,VALID,0,
2014-11-17, 09:08:04,VALID,917.675,VALID,0,VALID,71.9041,VALID,610.158,VALID,24.4002,VALID,280,VALID,0,
2014-11-17, 09:09:04,VALID,917.622,VALID,0,VALID,74.4198,VALID,409.458,VALID,24.4959,VALID,280,VALID,0,
2014-11-17, 09:10:04,VALID,917.637,VALID,0,VALID,73.6346,VALID,622.836,VALID,24.574,VALID,292,VALID,0,
2014-11-17, 09:11:04,VALID,917.645,VALID,0,VALID,72.209,VALID,356.919,VALID,24.5545,VALID,254,VALID,0.435547,
2014-11-17, 09:12:04,VALID,917.622,VALID,0,VALID,71.9269,VALID,196.51,VALID,24.6326,VALID,284,VALID,0.858984,
2014-11-17, 09:13:04,VALID,917.623,VALID,0,VALID,72.1633,VALID,211.981,VALID,24.535,VALID,264,VALID,0.796875,
2014-11-17, 09:14:04,VALID,917.605,VALID,0,VALID,71.5381,VALID,241.528,VALID,24.4959,VALID,264,VALID,0.228125,
2014-11-17, 09:15:04,VALID,917.566,VALID,0,VALID,71.2027,VALID,228.635,VALID,24.574,VALID,249,VALID,0.417969,
2014-11-17, 09:16:04,VALID,917.576,VALID,0,VALID,72.0718,VALID,291.703,VALID,24.4764,VALID,249,VALID,0,
2014-11-17, 09:17:04,VALID,917.549,VALID,0,VALID,71.3704,VALID,690.847,VALID,24.5545,VALID,249,VALID,0,
2014-11-17, 09:18:04,VALID,917.548,VALID,0,VALID,70.7987,VALID,698.153,VALID,24.8083,VALID,263,VALID,0.253125,
2014-11-17, 09:19:04,VALID,917.544,VALID,0,VALID,69.617,VALID,708.145,VALID,24.8669,VALID,250,VALID,0.977734,
2014-11-17, 09:20:04,VALID,917.54,VALID,0,VALID,70.1659,VALID,705.566,VALID,24.9255,VALID,231,VALID,0.907031,
2014-11-17, 09:21:04,VALID,917.554,VALID,0,VALID,69.8915,VALID,707.178,VALID,25.1012,VALID,231,VALID,0,
2014-11-17, 09:22:04,VALID,917.564,VALID,0,VALID,68.2677,VALID,715.666,VALID,25.2945,VALID,320,VALID,0.876172,
2014-11-17, 09:23:04,VALID,917.56,VALID,0,VALID,68.5574,VALID,718.137,VALID,25.4331,VALID,299,VALID,1.12812,
2014-11-17, 09:24:04,VALID,917.567,VALID,0,VALID,68.9767,VALID,727.699,VALID,25.3141,VALID,286,VALID,0.655859,
2014-11-17, 09:25:04,VALID,917.546,VALID,0,VALID,68.6031,VALID,733.286,VALID,25.2574,VALID,272,VALID,0.6125,
2014-11-17, 09:26:04,VALID,917.584,VALID,0,VALID,69.2511,VALID,735.22,VALID,25.5503,VALID,331,VALID,1.93281,
2014-11-17, 09:27:04,VALID,917.551,VALID,0,VALID,67.0403,VALID,724.368,VALID,25.5894,VALID,291,VALID,0.8,
2014-11-17, 09:28:04,VALID,917.564,VALID,0,VALID,68.2982,VALID,719.533,VALID,25.4331,VALID,320,VALID,0.110156,
2014-11-17, 09:29:04,VALID,917.533,VALID,0,VALID,66.987,VALID,717.814,VALID,25.6109,VALID,330,VALID,0,
2014-11-17, 09:30:04,VALID,917.508,VALID,0,VALID,67.9628,VALID,732.749,VALID,25.687,VALID,295,VALID,0,
2014-11-17, 09:31:04,VALID,917.488,VALID,0,VALID,68.3287,VALID,714.161,VALID,25.9604,VALID,350,VALID,0.340625,
2014-11-17, 09:32:04,VALID,917.513,VALID,0,VALID,64.9668,VALID,689.02,VALID,26.1558,VALID,316,VALID,0,
2014-11-17, 09:33:04,VALID,917.454,VALID,0,VALID,65.7443,VALID,624.448,VALID,25.9995,VALID,314,VALID,0,
2014-11-17, 09:34:04,VALID,917.451,VALID,0,VALID,66.1712,VALID,598.555,VALID,25.8804,VALID,314,VALID,0,
2014-11-17, 09:35:04,VALID,917.395,VALID,0,VALID,65.9959,VALID,623.159,VALID,26.0386,VALID,314,VALID,0,
2014-11-17, 09:36:04,VALID,917.37,VALID,0,VALID,65.2488,VALID,574.595,VALID,25.9409,VALID,242,VALID,0.607813,
2014-11-17, 09:37:04,VALID,917.363,VALID,0,VALID,67.7798,VALID,501.428,VALID,25.8042,VALID,255,VALID,0,
2014-11-17, 09:38:04,VALID,917.329,VALID,0,VALID,66.7506,VALID,462.749,VALID,25.6265,VALID,252,VALID,0.553516,
2014-11-17, 09:39:04,VALID,917.332,VALID,0,VALID,67.391,VALID,396.35,VALID,25.316,VALID,249,VALID,0.000390625,
2014-11-17, 09:40:04,VALID,917.307,VALID,0,VALID,68.9004,VALID,359.283,VALID,25.0993,VALID,253,VALID,0.244922,
2014-11-17, 09:41:04,VALID,917.303,VALID,0,VALID,70.0516,VALID,348.969,VALID,24.8845,VALID,255,VALID,0,
2014-11-17, 09:42:04,VALID,917.303,VALID,0,VALID,71.2408,VALID,346.927,VALID,24.7674,VALID,272,VALID,0.159375,
2014-11-17, 09:43:04,VALID,917.316,VALID,0,VALID,71.8202,VALID,349.828,VALID,24.865,VALID,222,VALID,0.903125,
2014-11-17, 09:44:04,VALID,917.297,VALID,0,VALID,72.0413,VALID,353.696,VALID,24.9431,VALID,229,VALID,0,
2014-11-17, 09:45:04,VALID,917.325,VALID,0,VALID,70.3184,VALID,358.209,VALID,24.8064,VALID,242,VALID,0,
2014-11-17, 09:46:04,VALID,917.342,VALID,0,VALID,71.0502,VALID,367.449,VALID,24.7283,VALID,246,VALID,0,
2014-11-17, 09:47:04,VALID,917.331,VALID,0,VALID,71.7592,VALID,373.68,VALID,24.7088,VALID,246,VALID,0,
2014-11-17, 09:48:04,VALID,917.317,VALID,0,VALID,73.4516,VALID,376.796,VALID,24.7869,VALID,246,VALID,0,
2014-11-17, 09:49:04,VALID,917.346,VALID,0,VALID,73.0323,VALID,359.498,VALID,24.9059,VALID,235,VALID,0.113672,
2014-11-17, 09:50:04,VALID,917.347,VALID,0,VALID,72.5902,VALID,331.026,VALID,25.0017,VALID,226,VALID,0,
2014-11-17, 09:51:04,VALID,917.337,VALID,0,VALID,71.5,VALID,328.662,VALID,25.0017,VALID,228,VALID,0,
2014-11-17, 09:52:04,VALID,917.333,VALID,0,VALID,72.1175,VALID,334.035,VALID,25.0621,VALID,220,VALID,0.0015625,
2014-11-17, 09:53:04,VALID,917.335,VALID,0,VALID,73.5202,VALID,349.828,VALID,25.0993,VALID,218,VALID,0.892578,
2014-11-17, 09:54:04,VALID,917.373,VALID,0,VALID,74.7933,VALID,369.168,VALID,25.1969,VALID,218,VALID,0.00195313,
2014-11-17, 09:55:05,VALID,917.363,VALID,0,VALID,73.8633,VALID,375.077,VALID,25.3141,VALID,206,VALID,1.11016,
2014-11-17, 09:56:05,VALID,917.351,VALID,0,VALID,72.7503,VALID,365.085,VALID,25.3141,VALID,189,VALID,0.0363281,
2014-11-17, 09:57:05,VALID,917.393,VALID,0,VALID,71.8507,VALID,360.358,VALID,25.3531,VALID,199,VALID,0.850391,
2014-11-17, 09:58:05,VALID,917.372,VALID,0,VALID,72.7503,VALID,363.151,VALID,25.3141,VALID,186,VALID,1.11328,
2014-11-17, 09:59:05,VALID,917.383,VALID,0,VALID,71.4543,VALID,370.779,VALID,25.2555,VALID,187,VALID,0.887891,
2014-11-17, 10:00:05,VALID,917.393,VALID,0,VALID,71.6601,VALID,399.036,VALID,24.9821,VALID,186,VALID,0,
2014-11-17, 10:01:05,VALID,917.402,VALID,0,VALID,72.5825,VALID,421.384,VALID,24.8064,VALID,186,VALID,0,
2014-11-17, 10:02:05,VALID,917.378,VALID,0,VALID,72.6435,VALID,409.351,VALID,24.9255,VALID,186,VALID,0,
2014-11-17, 10:03:05,VALID,917.401,VALID,0,VALID,72.8189,VALID,425.682,VALID,25.1188,VALID,185,VALID,0,
2014-11-17, 10:04:05,VALID,917.378,VALID,0,VALID,73.3144,VALID,457.592,VALID,25.1969,VALID,186,VALID,0,
2014-11-17, 10:05:05,VALID,917.369,VALID,0,VALID,71.8278,VALID,457.914,VALID,25.1402,VALID,186,VALID,0,
2014-11-17, 10:06:05,VALID,917.418,VALID,0,VALID,73.6803,VALID,464.146,VALID,25.1207,VALID,186,VALID,0,
2014-11-17, 10:07:05,VALID,917.403,VALID,0,VALID,73.7032,VALID,440.079,VALID,25.2555,VALID,185,VALID,0,
2014-11-17, 10:08:05,VALID,917.448,VALID,0,VALID,73.2915,VALID,426.004,VALID,25.3922,VALID,225,VALID,0,
2014-11-17, 10:09:05,VALID,917.42,VALID,0,VALID,70.509,VALID,412.252,VALID,25.5289,VALID,218,VALID,0.703516,
2014-11-17, 10:10:05,VALID,917.441,VALID,0,VALID,70.4632,VALID,413.971,VALID,25.6831,VALID,218,VALID,0,
2014-11-17, 10:11:05,VALID,917.438,VALID,0,VALID,71.8964,VALID,422.996,VALID,25.8218,VALID,222,VALID,0.211328,
2014-11-17, 10:12:05,VALID,917.447,VALID,0,VALID,70.1507,VALID,438.145,VALID,25.8804,VALID,232,VALID,0.608203,
2014-11-17, 10:13:05,VALID,917.441,VALID,0,VALID,70.9893,VALID,459.741,VALID,25.8413,VALID,275,VALID,0.0140625,
2014-11-17, 10:14:05,VALID,917.473,VALID,0,VALID,71.1341,VALID,478.543,VALID,25.7046,VALID,236,VALID,0,
2014-11-17, 10:15:05,VALID,917.446,VALID,0,VALID,72.2776,VALID,491.436,VALID,25.7241,VALID,240,VALID,0,
2014-11-17, 10:16:05,VALID,917.457,VALID,0,VALID,72.1633,VALID,508.089,VALID,25.7046,VALID,252,VALID,1.45938,
2014-11-17, 10:17:05,VALID,917.465,VALID,0,VALID,69.9067,VALID,525.924,VALID,25.5484,VALID,226,VALID,0.378906,
2014-11-17, 10:18:05,VALID,917.446,VALID,0,VALID,70.4404,VALID,544.834,VALID,25.4507,VALID,251,VALID,0.655078,
2014-11-17, 10:19:05,VALID,917.431,VALID,0,VALID,72.0718,VALID,561.702,VALID,25.275,VALID,250,VALID,0.191016,
2014-11-17, 10:20:05,VALID,917.419,VALID,0,VALID,71.2713,VALID,657.003,VALID,25.2164,VALID,231,VALID,0,
2014-11-17, 10:21:05,VALID,917.41,VALID,0,VALID,71.6296,VALID,602.208,VALID,25.3141,VALID,225,VALID,0,
2014-11-17, 10:22:05,VALID,917.376,VALID,0,VALID,70.8596,VALID,605.109,VALID,25.4507,VALID,257,VALID,0.163672,
2014-11-17, 10:23:05,VALID,917.4,VALID,0,VALID,69.9143,VALID,609.836,VALID,25.4898,VALID,238,VALID,0,
2014-11-17, 10:24:05,VALID,917.372,VALID,0,VALID,69.213,VALID,577.496,VALID,25.5269,VALID,239,VALID,0,
2014-11-17, 10:25:05,VALID,917.333,VALID,0,VALID,70.3717,VALID,568.256,VALID,25.5679,VALID,285,VALID,0,
2014-11-17, 10:26:05,VALID,917.307,VALID,0,VALID,71.6906,VALID,577.926,VALID,25.607,VALID,280,VALID,0.175,
2014-11-17, 10:27:05,VALID,917.286,VALID,0,VALID,70.8825,VALID,581.471,VALID,25.646,VALID,276,VALID,0,
2014-11-17, 10:28:05,VALID,917.281,VALID,0,VALID,71.096,VALID,594.15,VALID,25.7612,VALID,303,VALID,0.0121094,
2014-11-17, 10:29:05,VALID,917.274,VALID,0,VALID,70.3413,VALID,604.786,VALID,25.8022,VALID,272,VALID,0,
2014-11-17, 10:30:05,VALID,917.289,VALID,0,VALID,69.617,VALID,475.212,VALID,25.6245,VALID,257,VALID,0.471484,
2014-11-17, 10:31:05,VALID,917.297,VALID,0,VALID,70.6919,VALID,651.308,VALID,25.4098,VALID,272,VALID,0.180859,
2014-11-17, 10:32:05,VALID,917.241,VALID,0,VALID,71.8583,VALID,438.36,VALID,25.3726,VALID,270,VALID,0,
2014-11-17, 10:33:05,VALID,917.248,VALID,0,VALID,71.8278,VALID,418.054,VALID,25.4312,VALID,313,VALID,0,
2014-11-17, 10:34:05,VALID,917.215,VALID,0,VALID,71.8964,VALID,545.371,VALID,25.4507,VALID,320,VALID,0,
2014-11-17, 10:35:05,VALID,917.225,VALID,0,VALID,71.0579,VALID,703.202,VALID,25.5289,VALID,320,VALID,0,
2014-11-17, 10:36:05,VALID,917.195,VALID,0,VALID,72.148,VALID,809.139,VALID,25.6851,VALID,285,VALID,0,
2014-11-17, 10:37:05,VALID,917.21,VALID,0,VALID,71.1798,VALID,729.74,VALID,25.7612,VALID,262,VALID,0,
2014-11-17, 10:38:05,VALID,917.163,VALID,0,VALID,71.0807,VALID,641.746,VALID,25.7808,VALID,259,VALID,0,